La Ceiba, Honduras

6:18 AM CST on May 24, 2018 (GMT -0600)
Goloson International

Weather History for MHLC - May, 2013

Change the Weather History Date:

Saturday, May 11, 2013

  Actual Average Record
Temperature  
Mean Temperature 81 °F -  
Max Temperature 90 °F 86 °F 91 °F (1998)
Min Temperature 72 °F 72 °F 66 °F (2007)
Cooling Degree Days 16    
Growing Degree Days 31 (Base 50)    
Moisture  
Dew Point 75 °F    
Average Humidity 75    
Maximum Humidity 94    
Minimum Humidity 57    
Precipitation  
Precipitation 0.00 in 0.14 in - ()
Sea Level Pressure  
Sea Level Pressure 29.88 in    
Wind  
Wind Speed 3 mph ()    
Max Wind Speed 15 mph    
Max Gust Speed -    
Visibility 5.9 miles    
Events      
Averages and records for this station are not official NWS values.
T = Trace of Precipitation, MM = Missing Value Source: Averaged Metar Reports

Daily Weather History Graph

Daily Weather History Graph

Search for Another Location

Airport or City:

Astronomy

May. 11, 2013 Rise Set
Actual Time 5:19 AM CST 6:08 PM CST
Civil Twilight 4:56 AM CST 6:31 PM CST
Nautical Twilight 4:29 AM CST 6:58 PM CST
Astronomical Twilight 4:02 AM CST 7:25 PM CST
Moon 6:31 AM CST (5/11) 7:43 PM CST (5/11)
Length of Visible Light 13h 35m
Length of Day
12h 49m
Waxing Crescent, 3% of the Moon is Illuminated
May 11
Waxing Crescent
May 17
First Quarter
May 24
Full
May 31
Last Quarter
Jun 8
New

Hourly Weather History & Observations

Time (CST) Temp. Heat Index Dew Point Humidity Pressure Visibility Wind Dir Wind Speed Gust Speed Precip Events Conditions
12:00 AM 75.2 °F - 73.4 °F 94% 29.92 in 6.2 mi Calm Calm - N/A   Partly Cloudy
1:00 AM 75.2 °F - 73.4 °F 94% 29.92 in 6.2 mi Calm Calm - N/A   Partly Cloudy
6:00 AM 73 °F - 71 °F 93% 29.89 in 4 mi Calm Calm - -   Haze
6:00 AM 73.4 °F - 71.6 °F 94% 29.89 in 4.3 mi Calm Calm - N/A   Mostly Cloudy
7:00 AM 80.6 °F 86.2 °F 75.2 °F 84% 29.92 in 4.3 mi Calm Calm - N/A   Unknown
8:00 AM 84.2 °F 94.1 °F 77.0 °F 79% 29.92 in 5.0 mi Calm Calm - N/A   Mostly Cloudy
9:00 AM 87 °F - 75 °F 61% 29.96 in 6 mi Calm Calm - -   Haze
9:00 AM 87.8 °F 97.6 °F 75.2 °F 66% 29.95 in 6.2 mi Calm Calm - N/A   Mostly Cloudy
10:00 AM 86.0 °F 95.1 °F 75.2 °F 70% 29.95 in 6.2 mi North 5.8 mph - N/A   Mostly Cloudy
11:00 AM 86.0 °F 95.1 °F 75.2 °F 70% 29.92 in 6.2 mi NNW 5.8 mph - N/A   Mostly Cloudy
12:00 PM 89 °F - 76 °F 57% 29.92 in 6 mi North 8.1 mph - -   Haze
12:00 PM 89.6 °F 99.8 °F 75.2 °F 62% 29.92 in 6.2 mi North 8.1 mph - N/A   Mostly Cloudy
1:00 PM 89.6 °F 102.2 °F 77.0 °F 66% 29.89 in 6.2 mi North 8.1 mph - N/A   Mostly Cloudy
2:00 PM 89.6 °F 99.8 °F 75.2 °F 62% 29.86 in 6.2 mi NE 9.2 mph - N/A   Mostly Cloudy
3:00 PM 89 °F - 77 °F 59% 29.85 in 6 mi NE 11.5 mph - -   Haze
3:00 PM 89.6 °F 102.2 °F 77.0 °F 66% 29.83 in 6.2 mi NE 11.5 mph - N/A   Mostly Cloudy
4:00 PM 86.0 °F 96.9 °F 77.0 °F 74% 29.83 in 6.2 mi NE 15.0 mph - N/A   Mostly Cloudy
5:00 PM 86.0 °F 95.1 °F 75.2 °F 70% 29.80 in 6.2 mi ENE 15.0 mph - N/A   Mostly Cloudy
6:00 PM 83 °F - 74 °F 68% 29.83 in 6 mi NE 12.7 mph - -   Haze
6:00 PM 84.2 °F 90.9 °F 73.4 °F 70% 29.83 in 6.2 mi NE 12.7 mph - N/A   Scattered Clouds
7:00 PM 82.4 °F 88.2 °F 73.4 °F 74% 29.83 in 6.2 mi Calm Calm - N/A   Scattered Clouds
8:00 PM 80.6 °F 86.2 °F 75.2 °F 84% 29.86 in 6.2 mi Calm Calm - N/A   Mostly Cloudy
9:00 PM 80 °F - 74 °F 76% 29.87 in 6 mi Calm Calm - -   Haze
9:00 PM 78.8 °F - 73.4 °F 83% 29.86 in 6.2 mi Calm Calm - N/A   Mostly Cloudy
10:00 PM 78.8 °F - 73.4 °F 83% 29.86 in 6.2 mi Calm Calm - N/A   Mostly Cloudy
11:00 PM 78.8 °F - 73.4 °F 83% 29.89 in 6.2 mi Calm Calm - N/A   Scattered Clouds